Location: Knowlton
(51.2333°N, 1.2667°E)
Time: 04:30:47
(UTC+00:00)

Cosmos 1892 - Pass Details

Date: 18 April 2021
Orbit: 502 x 524 km, 82.5° (Epoch: 06 May)

Event Time Altitude Azimuth Distance (km) Brightness Sun altitude
Rises 19:48:51 0° 345° (NNW) 2,616 7.0 -8.3°
Reaches altitude 10° 19:51:00 10° 341° (NNW) 1,727 6.1 -8.6°
Maximum altitude 19:54:41 52° 265° (W) 635 3.5 -9.1°
Drops below altitude 10° 19:58:21 10° 188° (S) 1,719 5.1 -9.6°
Sets 20:00:30 0° 183° (S) 2,603 6.0 -9.9°
